Williams, AZ

5:12 PM MST on February 19, 2017 (GMT -0700)
Williams

Weather History for KCMR - December, 2012

Change the Weather History Date:

Friday, December 28, 2012

  Actual Average (K40G) Record (K40G)
Temperature  
Mean Temperature 15 °F -  
Max Temperature 32 °F 42 °F 48 °F (1996)
Min Temperature -2 °F 35 °F 21 °F (1997)
Degree Days  
Heating Degree Days 50    
Moisture  
Dew Point 5 °F    
Average Humidity 69    
Maximum Humidity 93    
Minimum Humidity 30    
Precipitation  
Precipitation 0.05 in - - ()
Sea Level Pressure  
Sea Level Pressure 30.13 in    
Wind  
Wind Speed 3 mph (SSE)    
Max Wind Speed 14 mph    
Max Gust Speed -    
Visibility 10 miles    
Events      
Averages and records for this station are not official NWS values.
T = Trace of Precipitation, MM = Missing Value Source: NWS Daily Summary

Daily Weather History Graph

Daily Weather History Graph

Search for Another Location

Airport or City:

Trip Planner

Search our weather history database for the weather conditions in past years. The results will help you decide how hot, cold, wet, or windy it might be!

Date:

Astronomy

Dec. 28, 2012 Rise Set
Actual Time 7:36 AM MST 5:24 PM MST
Civil Twilight 7:08 AM MST 5:52 PM MST
Nautical Twilight 6:36 AM MST 6:24 PM MST
Astronomical Twilight 6:05 AM MST 6:55 PM MST
Moon 6:02 PM MST (12/28) 7:35 AM MST (12/28)
Length of Visible Light 10h 44m
Length of Day
9h 47m
Full, 100% of the Moon is Illuminated
Dec 28
Full
Jan 4
Last Quarter
Jan 11
New
Jan 18
First Quarter
Jan 26
Full

Hourly Weather History & Observations

Time (MST) Temp. Windchill Dew Point Humidity Pressure Visibility Wind Dir Wind Speed Gust Speed Precip Events Conditions
12:15 AM 17.6 °F - 15.8 °F 93% 30.04 in 10.0 mi Calm Calm - N/A   Clear
12:35 AM 17.6 °F - 14.0 °F 86% 30.04 in 10.0 mi Calm Calm - N/A   Clear
12:55 AM 8.6 °F - 5.0 °F 85% 30.04 in 10.0 mi Calm Calm - N/A   Clear
1:15 AM 8.6 °F 2.0 °F 5.0 °F 85% 30.04 in 10.0 mi SSE 3.5 mph - N/A   Clear
1:35 AM 8.6 °F - 5.0 °F 85% 30.05 in 10.0 mi Calm Calm - N/A   Clear
1:55 AM 8.6 °F 2.0 °F 5.0 °F 85% 30.05 in 10.0 mi South 3.5 mph - N/A   Clear
2:15 AM 6.8 °F - 3.2 °F 85% 30.06 in 10.0 mi Calm Calm - N/A   Clear
2:35 AM 5.0 °F - 1.4 °F 85% 30.07 in 10.0 mi Calm Calm - N/A   Clear
2:55 AM 5.0 °F -2.1 °F 1.4 °F 85% 30.07 in 10.0 mi South 3.5 mph - N/A   Clear
3:15 AM 5.0 °F -5.6 °F -0.4 °F 78% 30.07 in 10.0 mi SSE 5.8 mph - N/A   Clear
3:35 AM 5.0 °F -8.1 °F -0.4 °F 78% 30.07 in 10.0 mi SSE 8.1 mph - N/A   Clear
3:55 AM 1.4 °F -9.9 °F -0.4 °F 92% 30.07 in 10.0 mi SSE 5.8 mph - N/A   Clear
4:15 AM 1.4 °F -8.3 °F -0.4 °F 92% 30.08 in 10.0 mi South 4.6 mph - N/A   Clear
4:35 AM 1.4 °F -11.3 °F -2.2 °F 85% 30.07 in 10.0 mi SSE 6.9 mph - N/A   Clear
4:55 AM -0.4 °F -12.0 °F -2.2 °F 92% 30.07 in 10.0 mi SSE 5.8 mph - N/A   Clear
5:15 AM -0.4 °F -10.4 °F -2.2 °F 92% 30.08 in 10.0 mi SSE 4.6 mph - N/A   Clear
5:35 AM -0.4 °F -13.4 °F -4.0 °F 85% 30.08 in 10.0 mi SSE 6.9 mph - N/A   Clear
5:55 AM 1.4 °F -8.3 °F -2.2 °F 85% 30.09 in 10.0 mi SSE 4.6 mph - N/A   Clear
6:15 AM -0.4 °F -10.4 °F -2.2 °F 92% 30.09 in 10.0 mi SSE 4.6 mph - N/A   Clear
6:35 AM -0.4 °F -12.0 °F -4.0 °F 85% 30.09 in 10.0 mi SSE 5.8 mph - N/A   Clear
6:55 AM -0.4 °F -12.0 °F -4.0 °F 85% 30.10 in 10.0 mi SSE 5.8 mph - N/A   Clear
7:15 AM -0.4 °F -13.4 °F -5.8 °F 78% 30.10 in 10.0 mi South 6.9 mph - N/A   Clear
7:35 AM -2.2 °F -14.2 °F -5.8 °F 85% 30.10 in 10.0 mi South 5.8 mph - N/A   Clear
7:55 AM -0.4 °F -10.4 °F -5.8 °F 78% 30.11 in 10.0 mi SSE 4.6 mph - N/A   Clear
8:15 AM -0.4 °F -10.4 °F -4.0 °F 85% 30.11 in 10.0 mi SSE 4.6 mph - N/A   Clear
8:55 AM 5.0 °F -4.1 °F 1.4 °F 85% 30.12 in 10.0 mi SSE 4.6 mph - N/A   Clear
9:15 AM 8.6 °F - 6.8 °F 92% 30.14 in 10.0 mi Calm Calm - N/A   Clear
9:35 AM 14.0 °F - 10.4 °F 86% 30.15 in 10.0 mi Calm Calm - N/A   Clear
9:55 AM 15.8 °F - 14.0 °F 93% 30.15 in 10.0 mi Calm Calm - N/A   Clear
10:15 AM 17.6 °F - 15.8 °F 93% 30.16 in 10.0 mi Calm Calm - N/A   Clear
10:35 AM 19.4 °F - 17.6 °F 93% 30.16 in 10.0 mi Calm Calm - N/A   Clear
10:55 AM 21.2 °F - 17.6 °F 86% 30.16 in 10.0 mi Calm Calm - N/A   Clear
11:15 AM 24.8 °F - 12.2 °F 59% 30.16 in 10.0 mi Calm Calm - N/A   Clear
11:35 AM 24.8 °F - 14.0 °F 64% 30.16 in 10.0 mi Calm Calm - N/A   Clear
11:55 AM 26.6 °F 22.6 °F 10.4 °F 51% 30.15 in 10.0 mi North 3.5 mph - N/A   Clear
12:15 PM 28.4 °F 24.6 °F 8.6 °F 43% 30.14 in 10.0 mi North 3.5 mph - N/A   Clear
12:35 PM 30.2 °F - 8.6 °F 40% 30.14 in 10.0 mi Calm Calm - N/A   Clear
12:55 PM 30.2 °F - 8.6 °F 40% 30.13 in 10.0 mi Calm Calm - N/A   Clear
1:15 PM 32.0 °F - 8.6 °F 38% 30.13 in 10.0 mi Calm Calm - N/A   Clear
1:35 PM 32.0 °F - 8.6 °F 38% 30.12 in 10.0 mi Calm Calm - N/A   Clear
1:55 PM 32.0 °F - 8.6 °F 38% 30.12 in 10.0 mi Calm Calm - 0.01 in   Clear
2:15 PM 32.0 °F 27.5 °F 8.6 °F 38% 30.12 in 10.0 mi North 4.6 mph - 0.01 in   Clear
2:35 PM 32.0 °F 28.7 °F 8.6 °F 38% 30.12 in 10.0 mi NW 3.5 mph - 0.02 in   Clear
2:55 PM 32.0 °F 28.7 °F 6.8 °F 35% 30.13 in 10.0 mi NW 3.5 mph - 0.03 in   Clear
3:15 PM 32.0 °F 28.7 °F 8.6 °F 38% 30.13 in 10.0 mi North 3.5 mph - N/A   Clear
3:35 PM 32.0 °F - 6.8 °F 35% 30.13 in 10.0 mi Calm Calm - N/A   Clear
3:55 PM 30.2 °F - 5.0 °F 34% 30.14 in 10.0 mi Calm Calm - N/A   Clear
4:15 PM 30.2 °F - 3.2 °F 32% 30.14 in 10.0 mi Calm Calm - 0.01 in   Clear
4:35 PM 32.0 °F - 3.2 °F 30% 30.14 in 10.0 mi Calm Calm - 0.01 in   Clear
4:55 PM 28.4 °F - 5.0 °F 37% 30.14 in 10.0 mi Calm Calm - 0.01 in   Clear
5:15 PM 26.6 °F - 6.8 °F 43% 30.15 in 10.0 mi Calm Calm - N/A   Clear
5:35 PM 24.8 °F - 6.8 °F 46% 30.15 in 10.0 mi Calm Calm - N/A   Clear
6:15 PM 23.0 °F - 8.6 °F 54% 30.16 in 10.0 mi Calm Calm - N/A   Clear
6:35 PM 17.6 °F - 6.8 °F 63% 30.17 in 10.0 mi Calm Calm - N/A   Clear
6:55 PM 14.0 °F 2.9 °F 6.8 °F 73% 30.18 in 10.0 mi SSE 8.1 mph - N/A   Clear
7:15 PM 14.0 °F 3.9 °F 5.0 °F 67% 30.18 in 10.0 mi SSE 6.9 mph - N/A   Clear
7:35 PM 14.0 °F 2.9 °F 5.0 °F 67% 30.19 in 10.0 mi SSE 8.1 mph - N/A   Clear
7:55 PM 12.2 °F 2.9 °F 5.0 °F 73% 30.19 in 10.0 mi SE 5.8 mph - N/A   Clear
8:15 PM 15.8 °F 6.1 °F 6.8 °F 68% 30.19 in 10.0 mi SE 6.9 mph - N/A   Clear
8:35 PM 14.0 °F 2.0 °F 6.8 °F 73% 30.19 in 10.0 mi SE 9.2 mph - N/A   Clear
8:55 PM 15.8 °F 5.1 °F 6.8 °F 68% 30.18 in 10.0 mi SE 8.1 mph - N/A   Clear
9:15 PM 15.8 °F 5.1 °F 6.8 °F 68% 30.18 in 10.0 mi SSE 8.1 mph - N/A   Clear
9:35 PM 15.8 °F 3.4 °F 6.8 °F 68% 30.18 in 10.0 mi SSE 10.4 mph - N/A   Clear
9:55 PM 17.6 °F 3.7 °F 8.6 °F 68% 30.18 in 10.0 mi SSE 13.8 mph - N/A   Clear
10:15 PM 15.8 °F 4.2 °F 8.6 °F 73% 30.18 in 10.0 mi SSE 9.2 mph - N/A   Clear
10:35 PM 15.8 °F 2.7 °F 8.6 °F 73% 30.19 in 10.0 mi SSE 11.5 mph - N/A   Clear
10:55 PM 15.8 °F 3.4 °F 8.6 °F 73% 30.18 in 10.0 mi SE 10.4 mph - N/A   Clear
11:15 PM 17.6 °F 8.2 °F 8.6 °F 68% 30.19 in 10.0 mi SE 6.9 mph - N/A   Clear
11:35 PM 17.6 °F 7.3 °F 8.6 °F 68% 30.20 in 10.0 mi SE 8.1 mph - N/A   Clear
11:55 PM 17.6 °F 5.0 °F 8.6 °F 68% 30.20 in 10.0 mi SE 11.5 mph - N/A   Clear